Precipitable_Water
0.63 0.62 0.62 0.61 0.58 0.55 0.52 0.49 0.41 0.32 0.29 0.30 0.28 0.31 0.30 0.29 0.29 0.29 0.27 0.25 0.25 0.26 0.26 0.28 0.30 0.30 0.31 0.32 0.32 0.34 0.36 0.38 0.40 0.40 0.40 0.42 0.43 0.45
0.64 0.63 0.62 0.60 0.57 0.55 0.51 0.46 0.39 0.32 0.25 0.28 0.28 0.29 0.29 0.28 0.27 0.26 0.24 0.24 0.22 0.23 0.26 0.29 0.28 0.29 0.31 0.31 0.32 0.34 0.36 0.37 0.39 0.41 0.42 0.43 0.44 0.45
0.63 0.63 0.61 0.60 0.56 0.53 0.48 0.41 0.34 0.29 0.25 0.27 0.28 0.28 0.26 0.23 0.23 0.23 0.22 0.22 0.23 0.24 0.25 0.26 0.27 0.30 0.30 0.32 0.33 0.34 0.35 0.38 0.38 0.40 0.41 0.43 0.44 0.45
0.62 0.63 0.61 0.59 0.54 0.49 0.42 0.35 0.30 0.29 0.28 0.24 0.25 0.24 0.23 0.23 0.22 0.22 0.23 0.24 0.23 0.24 0.24 0.27 0.27 0.29 0.31 0.33 0.35 0.36 0.35 0.36 0.38 0.39 0.40 0.39 0.40 0.41
0.66 0.64 0.59 0.56 0.49 0.42 0.35 0.30 0.30 0.30 0.28 0.24 0.22 0.24 0.23 0.22 0.21 0.23 0.24 0.23 0.23 0.25 0.26 0.27 0.29 0.31 0.33 0.34 0.34 0.33 0.34 0.34 0.34 0.35 0.37 0.37 0.39 0.41
0.65 0.61 0.57 0.49 0.40 0.33 0.30 0.31 0.31 0.28 0.25 0.23 0.22 0.21 0.21 0.21 0.22 0.21 0.18 0.22 0.23 0.26 0.27 0.28 0.29 0.30 0.30 0.29 0.29 0.30 0.31 0.32 0.34 0.35 0.37 0.38 0.40 0.42
0.60 0.53 0.46 0.38 0.33 0.32 0.32 0.30 0.28 0.25 0.23 0.22 0.20 0.20 0.19 0.19 0.17 0.20 0.21 0.23 0.24 0.25 0.25 0.26 0.27 0.27 0.26 0.26 0.27 0.28 0.30 0.33 0.34 0.35 0.36 0.37 0.40 0.43
0.48 0.40 0.33 0.30 0.31 0.31 0.30 0.27 0.27 0.24 0.22 0.21 0.21 0.19 0.18 0.18 0.21 0.22 0.23 0.22 0.19 0.27 0.26 0.25 0.26 0.24 0.25 0.26 0.27 0.29 0.30 0.32 0.33 0.35 0.36 0.36 0.38 0.42
0.33 0.29 0.28 0.29 0.29 0.27 0.25 0.25 0.24 0.24 0.25 0.23 0.20 0.19 0.18 0.22 0.24 0.24 0.25 0.25 0.24 0.26 0.26 0.22 0.26 0.24 0.27 0.27 0.28 0.29 0.30 0.31 0.33 0.33 0.34 0.36 0.38 0.41
0.28 0.29 0.28 0.26 0.25 0.24 0.23 0.23 0.24 0.24 0.23 0.24 0.23 0.21 0.24 0.28 0.30 0.29 0.27 0.25 0.26 0.26 0.28 0.22 0.26 0.25 0.27 0.28 0.28 0.29 0.29 0.31 0.32 0.33 0.33 0.34 0.36 0.38
0.28 0.26 0.24 0.22 0.22 0.23 0.23 0.22 0.22 0.21 0.24 0.22 0.22 0.27 0.30 0.31 0.29 0.27 0.25 0.23 0.21 0.23 0.28 0.26 0.25 0.25 0.27 0.26 0.27 0.28 0.29 0.31 0.31 0.31 0.32 0.33 0.35 0.37
0.24 0.23 0.22 0.21 0.22 0.23 0.23 0.23 0.20 0.19 0.19 0.20 0.26 0.28 0.27 0.27 0.28 0.28 0.27 0.24 0.24 0.23 0.27 0.25 0.25 0.26 0.21 0.25 0.26 0.28 0.28 0.30 0.30 0.31 0.31 0.32 0.34 0.36
0.21 0.19 0.19 0.19 0.22 0.24 0.23 0.21 0.19 0.20 0.20 0.24 0.25 0.25 0.26 0.27 0.28 0.30 0.31 0.29 0.26 0.24 0.29 0.29 0.26 0.26 0.26 0.23 0.26 0.27 0.28 0.29 0.29 0.29 0.31 0.32 0.34 0.36
0.17 0.17 0.18 0.22 0.22 0.21 0.19 0.18 0.19 0.21 0.22 0.24 0.23 0.24 0.26 0.27 0.29 0.30 0.31 0.32 0.32 0.30 0.31 0.32 0.27 0.27 0.25 0.23 0.22 0.26 0.27 0.29 0.29 0.29 0.31 0.32 0.35 0.37
0.18 0.20 0.22 0.21 0.19 0.16 0.16 0.17 0.19 0.22 0.24 0.23 0.24 0.25 0.27 0.29 0.30 0.30 0.31 0.31 0.31 0.31 0.32 0.32 0.31 0.30 0.28 0.25 0.24 0.24 0.24 0.27 0.30 0.30 0.31 0.33 0.34 0.35
0.20 0.21 0.20 0.17 0.15 0.15 0.15 0.18 0.24 0.25 0.25 0.25 0.26 0.28 0.29 0.29 0.29 0.30 0.28 0.29 0.27 0.27 0.31 0.32 0.32 0.31 0.27 0.27 0.27 0.25 0.29 0.27 0.30 0.33 0.34 0.35 0.36 0.38
0.22 0.17 0.14 0.13 0.13 0.14 0.18 0.24 0.25 0.26 0.26 0.27 0.27 0.27 0.27 0.28 0.28 0.29 0.29 0.28 0.26 0.26 0.26 0.29 0.30 0.31 0.31 0.30 0.28 0.30 0.30 0.31 0.33 0.34 0.35 0.35 0.37 0.38
0.16 0.13 0.12 0.13 0.13 0.17 0.23 0.24 0.26 0.27 0.27 0.28 0.28 0.27 0.27 0.27 0.27 0.28 0.29 0.27 0.26 0.26 0.26 0.27 0.27 0.27 0.29 0.32 0.35 0.31 0.32 0.32 0.34 0.36 0.37 0.34 0.34 0.38
0.13 0.13 0.13 0.13 0.16 0.23 0.25 0.26 0.26 0.27 0.29 0.28 0.28 0.28 0.27 0.27 0.27 0.27 0.27 0.27 0.26 0.26 0.26 0.28 0.29 0.30 0.27 0.25 0.31 0.37 0.33 0.34 0.36 0.35 0.36 0.36 0.35 0.37
0.13 0.13 0.13 0.17 0.24 0.25 0.26 0.26 0.27 0.28 0.28 0.28 0.28 0.28 0.28 0.27 0.27 0.26 0.27 0.26 0.26 0.26 0.27 0.31 0.32 0.32 0.30 0.29 0.31 0.34 0.40 0.36 0.36 0.35 0.37 0.40 0.42 0.44
0.13 0.14 0.19 0.25 0.26 0.27 0.27 0.28 0.28 0.28 0.29 0.29 0.28 0.29 0.29 0.28 0.27 0.27 0.27 0.28 0.29 0.30 0.29 0.30 0.34 0.38 0.39 0.38 0.32 0.33 0.37 0.41 0.41 0.39 0.39 0.38 0.37 0.38
0.15 0.20 0.26 0.27 0.27 0.28 0.28 0.28 0.28 0.29 0.29 0.29 0.29 0.30 0.31 0.31 0.30 0.31 0.31 0.30 0.31 0.31 0.32 0.34 0.37 0.37 0.36 0.34 0.32 0.34 0.36 0.39 0.43 0.43 0.44 0.44 0.39 0.33
0.22 0.27 0.28 0.28 0.29 0.29 0.29 0.29 0.29 0.30 0.30 0.29 0.30 0.31 0.32 0.32 0.33 0.33 0.33 0.33 0.33 0.33 0.34 0.33 0.35 0.36 0.35 0.35 0.35 0.34 0.36 0.37 0.39 0.40 0.42 0.46 0.46 0.46
Wind_Speed
26 28 29 31 33 35 36 37 38 39 39 37 38 41 44 46 47 49 50 52 53 55 56 57 58 60 61 61 60 60 60 60 60 60 60 59 59 59
28 30 31 33 35 37 38 39 39 40 42 42 44 45 47 47 49 50 53 54 55 56 56 57 59 59 59 59 59 59 58 57 57 56 55 54 53 52
30 32 34 35 37 38 39 40 41 42 44 45 47 48 48 50 51 53 54 54 55 56 58 58 57 57 58 57 56 54 54 52 50 49 47 46 46 45
32 34 36 37 39 39 40 41 42 43 45 48 48 48 50 51 53 54 54 55 56 56 56 55 55 54 53 52 50 48 47 46 43 42 42 42 41 40
33 36 37 39 40 40 41 42 43 45 46 47 49 50 51 53 54 55 55 56 55 54 53 52 50 49 47 46 45 43 42 41 40 39 38 38 37 37
35 37 38 40 40 41 42 43 44 45 46 48 50 51 52 53 54 55 55 53 51 50 50 49 46 45 44 43 43 42 41 39 37 36 36 36 35 35
37 38 39 39 41 42 43 44 44 46 47 48 50 51 53 53 54 54 53 51 49 47 45 42 41 41 41 42 42 42 40 38 37 37 36 36 35 35
37 37 39 40 41 43 44 45 46 47 48 49 51 53 54 54 53 51 50 47 43 40 38 39 40 39 39 40 40 40 41 40 38 36 36 36 35 35
36 38 39 41 42 43 44 45 47 47 49 52 54 54 54 53 52 49 46 43 40 40 41 41 40 40 39 39 39 40 39 39 38 36 35 35 34 34
37 39 40 41 42 44 45 46 46 49 51 52 53 53 52 49 47 45 42 40 39 39 40 41 40 40 39 38 39 38 36 36 36 35 35 35 36 36
38 39 40 42 43 45 46 48 50 51 52 53 52 50 47 46 42 39 37 37 38 38 39 40 40 41 39 36 34 33 33 34 35 35 34 34 35 36
38 39 42 43 45 47 48 50 51 52 52 49 46 44 41 38 35 34 35 36 38 38 37 38 40 38 33 31 30 32 33 33 33 32 33 33 34 34
39 41 43 45 47 49 50 50 51 51 48 44 40 36 33 32 32 33 35 37 38 38 40 40 38 35 32 33 31 32 32 31 30 30 31 31 32 32
42 43 45 47 49 50 50 49 49 46 40 35 32 30 30 31 33 35 36 37 38 39 39 37 34 33 32 32 32 31 30 29 28 28 27 28 30 31
44 46 48 49 50 48 47 46 41 35 31 28 28 29 30 33 35 36 36 37 37 37 36 33 31 31 31 30 31 30 29 27 25 25 25 26 27 28
46 47 47 48 47 45 41 35 29 26 26 26 27 29 32 34 35 36 36 37 35 33 31 30 29 29 29 29 29 28 26 23 24 23 24 25 26 28
47 47 46 45 42 37 30 25 24 23 24 26 28 31 33 34 35 35 35 34 31 29 27 27 27 27 27 27 25 22 21 22 23 24 24 26 27 28
47 46 43 38 32 26 22 21 20 22 24 27 29 31 33 35 34 33 32 29 27 24 24 25 26 25 23 21 20 22 23 23 24 25 25 25 25 24
44 40 33 27 21 18 16 17 20 22 25 27 29 32 33 32 32 30 28 25 22 22 23 24 23 21 22 21 22 21 22 23 23 22 22 22 24 26
35 27 21 16 13 14 15 18 20 23 25 27 31 32 31 30 28 25 23 21 21 21 22 21 20 20 21 22 23 23 22 22 22 23 24 25 27 29
21 15 11 11 12 14 16 18 20 23 25 28 30 29 28 27 25 23 21 22 22 20 20 21 22 23 22 22 21 22 23 23 25 25 26 26 27 27
11 10 10 11 13 15 17 18 21 23 25 28 28 27 26 24 23 22 22 21 21 20 21 23 23 22 20 20 22 24 25 26 26 27 27 28 27 26
10 10 11 12 14 15 17 19 20 22 25 27 27 25 25 25 24 23 22 22 22 22 22 23 22 21 20 21 23 25 27 28 27 27 27 28 27 27
Wind_Direction
283 287 291 294 297 298 298 298 298 299 299 299 298 298 300 300 299 298 297 298 297 296 295 293 293 292 291 290 288 287 286 284 282 280 278 276 274 271
284 288 292 295 297 298 299 298 298 298 297 299 299 300 300 300 300 299 299 298 298 297 296 295 294 293 291 290 289 288 286 285 283 281 278 276 273 271
285 289 292 295 297 299 298 298 298 298 298 300 300 301 301 302 301 301 300 300 299 298 297 296 295 294 292 291 290 289 287 285 283 280 278 276 273 270
287 290 293 295 297 298 298 298 298 299 299 300 301 302 302 303 303 302 302 301 301 300 298 297 296 295 294 292 291 289 288 285 282 279 277 275 273 269
289 292 294 296 297 297 298 298 299 299 300 300 301 303 303 304 304 303 303 303 302 301 299 299 297 296 294 293 292 290 288 285 282 279 276 274 271 269
291 293 294 295 296 297 298 299 300 300 300 301 302 303 304 305 305 305 304 304 303 302 300 299 297 295 294 292 291 289 287 285 281 278 275 273 270 268
293 294 295 296 297 298 299 300 301 301 301 302 303 304 305 306 305 305 304 304 303 302 301 300 299 298 296 293 290 288 285 282 280 277 275 272 269 266
294 296 297 298 298 300 300 301 302 302 303 303 304 305 305 306 306 305 305 305 304 303 302 302 301 300 298 295 293 289 284 281 279 276 274 272 268 264
296 298 299 300 300 301 301 302 302 302 303 304 304 304 305 305 305 304 304 302 301 302 302 301 302 300 299 297 295 291 287 280 275 275 273 270 267 263
299 300 301 301 302 302 302 303 303 304 304 304 304 304 304 304 303 303 302 301 301 302 303 302 304 302 301 298 296 292 287 282 276 273 273 270 267 263
302 302 303 304 304 304 304 304 305 305 305 305 304 303 303 303 303 302 302 303 304 305 305 304 305 303 301 299 297 293 290 285 280 274 272 270 267 264
304 305 306 306 306 306 306 306 306 307 306 306 304 304 304 303 303 303 304 304 305 306 308 307 307 306 303 299 297 296 293 288 282 276 273 271 268 265
306 307 307 307 307 307 307 307 307 307 307 306 305 305 305 305 305 306 306 305 305 305 307 307 306 304 300 300 299 297 295 292 286 278 274 271 268 265
307 308 308 308 309 309 308 308 308 308 307 307 306 306 307 308 309 309 308 306 305 304 307 306 304 303 302 301 301 300 297 293 288 281 276 273 270 267
309 309 309 310 310 309 309 310 310 309 309 309 309 309 310 311 311 310 310 309 308 307 307 306 304 304 302 301 301 301 300 296 290 285 281 276 273 270
311 310 310 310 310 310 311 311 311 312 312 312 313 313 314 314 313 313 312 312 311 310 309 308 307 305 304 302 302 301 300 294 295 290 286 281 278 276
312 311 311 311 311 312 312 312 315 316 317 318 318 318 318 317 316 316 315 314 312 311 311 313 313 310 307 305 305 304 302 300 297 294 291 288 283 281
313 312 312 311 312 312 314 317 320 322 323 323 323 322 322 321 320 319 319 318 316 315 316 316 317 317 316 312 305 307 305 303 301 298 294 289 288 285
313 313 312 314 315 317 321 324 326 328 328 328 328 328 327 326 325 324 324 323 321 321 321 322 323 323 321 318 318 314 309 309 307 303 297 294 290 289
316 316 317 320 325 328 330 331 332 333 334 335 334 334 334 333 334 334 334 333 330 329 329 330 330 329 324 322 321 322 320 314 311 307 303 299 294 291
323 327 333 336 336 336 336 337 337 339 340 340 341 341 341 342 343 343 342 339 338 337 336 335 333 329 327 326 325 326 325 321 316 310 308 304 302 299
344 347 347 345 342 341 340 341 342 344 345 346 347 348 349 351 350 349 348 346 345 342 339 337 338 337 336 334 331 330 330 329 325 319 313 307 304 301
355 353 350 346 345 344 343 344 346 348 349 351 352 353 354 353 352 351 350 349 347 346 345 344 344 344 342 340 337 336 335 334 332 328 323 319 314 310